Location: Dealu Mare
(46.0500°N, 22.8167°E)
Time: 23:15:41
(UTC+00:00)

BREEZE M DEB (TANK) - Pass Details

Date: 15 January 2026
Orbit: 287 x 11207 km, 49.5° (Epoch: 12 February)

Event Time Altitude Azimuth Distance (km) Brightness Sun altitude
Exits shadow 05:22:33 - 281° (W) 1,803 4.3 -7.7°
Reaches altitude 10° 05:22:38 10° 280° (W) 1,772 4.3 -7.7°
Maximum altitude 05:26:07 46° 205° (SSW) 1,156 3.9 -7.2°
Drops below altitude 10° 05:35:54 10° 137° (SE) 4,910 8.5 -5.6°
Sets 05:42:55 0° 134° (SE) 7,581 9.8 -4.5°
